{"data":{"norad_id":49281,"intl_designator":"2021-090C","name":"ONEWEB-0349","alt_names":[],"object_type":"PAYLOAD","status":"ACTIVE","operator":null,"country":"UK","launch_date":"2021-10-14","launch_site_code":"VOSTO","launch_vehicle":null,"mission":null,"orbit_class":"UNKNOWN","rcs_meters":null,"size_class":null,"mass_kg":null,"dimensions":null,"purposes":["comms"],"wikipedia_slug":null,"has_3d_model":false,"image_url":null,"decayed_at":null,"tle_current":{"epoch":"2026-09-19T18:32:21.604992Z","epoch_age_seconds":67018,"freshness":"FRESH","line1":"1 49281U 21090C   26262.77247228  .00000064  00000+0  12593-3 0  9995","line2":"2 49281  87.9138 255.5709 0002065  89.3494 270.7876 13.20772558242314","mean_motion":13.20772558,"eccentricity":0.0002065,"inclination_deg":87.9138,"raan_deg":255.5709,"arg_perigee_deg":89.3494,"mean_anomaly_deg":270.7876,"bstar":0.00012593,"rev_number":24231,"period_min":109.02709866872,"perigee_km":1180.2094087251,"apogee_km":1183.3316505349,"semimajor_km":7559.90752963,"source":"CELESTRAK","updated_at":"2026-09-20T09:00:44.668590Z"}}}